User: anonymous   Login
Location: Gaspur (historical)
(33.7814°N, 118.2212°W)
Time: 08:44:22
(UTC+00:00)
Language:

Orbcomm A7 (FM11) - Orbit

View from above orbital plane
View from above orbital plane
View from above satellite
View from above satellite

Ground track
Ground track

The orbit data is extracted from the following two-line orbital elements,

1 25114U 97084C   21128.89129519  .00000091  00000-0  74643-4 0  9997
2 25114  45.0167 319.3850 0006102 217.6698 142.3724 14.39175632225042
Epoch (UTC): 08 May 2021 21:23:27
Eccentricity: 0.0006102
inclination: 45.0167°
perigee height: 757 km
apogee height: 765 km
right ascension of ascending node: 319.3850°
argument of perigee: 217.6698°
revolutions per day: 14.39175632
mean anomaly at epoch: 142.3724°
orbit number at epoch: 22504

The dashed part of the orbit path shows where the satellite is in the earth's shadow,  

DLR